User: anonymous   Login
Location: Campillo
(40.8621°N, 4.2488°W)
Time: 05:20:15
(UTC+00:00)
Language:

SPOT 1/Viking Rocket - Orbit

View from above orbital plane
View from above orbital plane
View from above satellite
View from above satellite

Ground track
Ground track

The orbit data is extracted from the following two-line orbital elements,

1 16615U 86019C   21210.43215172  .00000031  00000-0  27437-4 0  9995
2 16615  98.4267 271.1915 0010549 288.5579  82.1534 14.31853336854520
Epoch (UTC): 29 July 2021 10:22:17
Eccentricity: 0.0010549
inclination: 98.4267°
perigee height: 778 km
apogee height: 793 km
right ascension of ascending node: 271.1915°
argument of perigee: 288.5579°
revolutions per day: 14.31853336
mean anomaly at epoch: 82.1534°
orbit number at epoch: 85452

The dashed part of the orbit path shows where the satellite is in the earth's shadow,  

DLR